When you browse on this site, cookies collect data to enhance your experience and personalize the content and advertising you see.
Visit our Privacy Policy to learn more. By continuing to use the site, you agree to this use of cookies and data.
  • In Netherlands
  • List of Countries
  • For 7 days
  • Water Temperature
  • Satellite Maps
  • Weather Map
  • Weather Widgets
  • user-avatar
    Login

    Hourly Weather Lipki

    Today, 19 July, Friday

    Time Temperature Precipitation Wind Pressure Humidity
    00:00 +12°C° 0 mm 3 mps 733 mmHg 92%
    01:00 +12°C° 0 mm 3 mps 733 mmHg 93%
    02:00 +12°C° 0 mm 3 mps 733 mmHg 94%
    03:00 +12°C° 0 mm 3 mps 733 mmHg 96%
    04:00 +12°C° 0 mm 4 mps 733 mmHg 95%
    05:00 +12°C° 0 mm 4 mps 733 mmHg 94%
    06:00 +13°C° 0 mm 4 mps 733 mmHg 94%
    07:00 +13°C° 0.2 mm 5 mps 733 mmHg 93%
    08:00 +13°C° 0.2 mm 5 mps 733 mmHg 92%
    09:00 +14°C° 0.2 mm 6 mps 733 mmHg 91%
    10:00 +14°C° 0.1 mm 6 mps 734 mmHg 90%
    11:00 +15°C° 0.1 mm 6 mps 734 mmHg 88%
    12:00 +16°C° 0.1 mm 6 mps 734 mmHg 86%
    13:00 +17°C° 0.4 mm 7 mps 734 mmHg 83%
    14:00 +17°C° 0.4 mm 7 mps 734 mmHg 81%
    15:00 +18°C° 0.4 mm 8 mps 734 mmHg 79%
    16:00 +18°C° 0.2 mm 7 mps 734 mmHg 79%
    17:00 +19°C° 0.2 mm 6 mps 735 mmHg 79%
    18:00 +19°C° 0.2 mm 6 mps 735 mmHg 80%
    19:00 +17°C° 0.1 mm 5 mps 735 mmHg 82%
    20:00 +16°C° 0.1 mm 5 mps 735 mmHg 85%
    21:00 +15°C° 0.1 mm 5 mps 735 mmHg 88%
    22:00 +14°C° 0 mm 4 mps 736 mmHg 88%
    23:00 +13°C° 0 mm 4 mps 736 mmHg 89%

    Tomorrow, 20 July, Saturday

    Time Temperature Precipitation Wind Pressure Humidity
    00:00 +13°C° 0 mm 4 mps 736 mmHg 89%
    01:00 +12°C° 0 mm 4 mps 736 mmHg 91%
    02:00 +12°C° 0 mm 5 mps 736 mmHg 92%
    03:00 +12°C° 0 mm 5 mps 737 mmHg 94%
    04:00 +12°C° 0 mm 5 mps 737 mmHg 92%
    05:00 +12°C° 0 mm 5 mps 737 mmHg 91%
    06:00 +12°C° 0 mm 5 mps 737 mmHg 89%
    07:00 +14°C° 0 mm 5 mps 738 mmHg 86%
    08:00 +15°C° 0 mm 5 mps 738 mmHg 82%
    09:00 +17°C° 0 mm 6 mps 738 mmHg 78%
    10:00 +19°C° 0.1 mm 6 mps 738 mmHg 75%
    11:00 +20°C° 0.1 mm 6 mps 739 mmHg 72%
    12:00 +21°C° 0.1 mm 7 mps 739 mmHg 68%
    13:00 +21°C° 0.5 mm 6 mps 739 mmHg 68%
    14:00 +21°C° 0.5 mm 6 mps 739 mmHg 68%
    15:00 +21°C° 0.5 mm 6 mps 739 mmHg 68%
    16:00 +21°C° 0.2 mm 6 mps 739 mmHg 70%
    17:00 +21°C° 0.2 mm 5 mps 739 mmHg 72%
    18:00 +21°C° 0.2 mm 5 mps 739 mmHg 74%
    19:00 +19°C° 0.1 mm 4 mps 739 mmHg 79%
    20:00 +18°C° 0.1 mm 4 mps 740 mmHg 85%
    21:00 +16°C° 0.1 mm 3 mps 740 mmHg 91%
    22:00 +16°C° 0 mm 3 mps 740 mmHg 92%
    23:00 +16°C° 0 mm 3 mps 740 mmHg 94%

    Day after tomorrow, 21 July, Sunday

    Time Temperature Precipitation Wind Pressure Humidity
    00:00 +14°C° 0 mm 3 mps 740 mmHg 95%
    01:00 +14°C° 0 mm 3 mps 740 mmHg 95%
    02:00 +13°C° 0 mm 3 mps 740 mmHg 96%
    03:00 +13°C° 0 mm 3 mps 740 mmHg 96%
    04:00 +13°C° 0 mm 3 mps 741 mmHg 95%
    05:00 +13°C° 0 mm 4 mps 741 mmHg 94%
    06:00 +14°C° 0 mm 4 mps 741 mmHg 94%
    07:00 +15°C° 0 mm 4 mps 741 mmHg 89%
    08:00 +17°C° 0 mm 4 mps 741 mmHg 84%
    09:00 +19°C° 0 mm 4 mps 741 mmHg 79%
    10:00 +20°C° 0 mm 5 mps 741 mmHg 75%
    11:00 +21°C° 0 mm 5 mps 741 mmHg 71%
    12:00 +22°C° 0 mm 5 mps 741 mmHg 67%
    13:00 +22°C° 0.2 mm 5 mps 741 mmHg 66%
    14:00 +23°C° 0.2 mm 5 mps 741 mmHg 65%
    15:00 +23°C° 0.2 mm 5 mps 741 mmHg 64%
    16:00 +23°C° 0.2 mm 5 mps 741 mmHg 67%
    17:00 +23°C° 0.2 mm 4 mps 741 mmHg 70%
    18:00 +22°C° 0.2 mm 3 mps 741 mmHg 72%
    19:00 +21°C° 0.1 mm 3 mps 741 mmHg 77%
    20:00 +19°C° 0.1 mm 2 mps 741 mmHg 82%
    21:00 +17°C° 0.1 mm 2 mps 741 mmHg 87%
    22:00 +17°C° 0 mm 2 mps 741 mmHg 88%
    23:00 +16°C° 0 mm 2 mps 741 mmHg 90%

    22 July, Monday

    Time Temperature Precipitation Wind Pressure Humidity
    00:00 +16°C° 0 mm 2 mps 741 mmHg 91%
    01:00 +15°C° 0 mm 2 mps 741 mmHg 92%
    02:00 +15°C° 0 mm 2 mps 741 mmHg 93%
    03:00 +15°C° 0 mm 2 mps 741 mmHg 93%
    04:00 +15°C° 0 mm 2 mps 741 mmHg 93%
    05:00 +15°C° 0 mm 2 mps 741 mmHg 93%
    06:00 +15°C° 0 mm 2 mps 741 mmHg 93%
    07:00 +17°C° 0 mm 2 mps 740 mmHg 88%
    08:00 +18°C° 0 mm 2 mps 740 mmHg 82%
    09:00 +21°C° 0 mm 1 mps 740 mmHg 77%
    10:00 +22°C° 0 mm 1 mps 740 mmHg 72%
    11:00 +23°C° 0 mm 1 mps 740 mmHg 66%
    12:00 +24°C° 0 mm 1 mps 740 mmHg 61%
    13:00 +24°C° 0 mm 1 mps 740 mmHg 58%
    14:00 +25°C° 0 mm 1 mps 740 mmHg 56%
    15:00 +25°C° 0 mm 1 mps 739 mmHg 54%
    16:00 +25°C° 0 mm 1 mps 739 mmHg 55%
    17:00 +25°C° 0 mm 1 mps 739 mmHg 56%
    18:00 +23°C° 0 mm 0 mps 739 mmHg 58%
    19:00 +23°C° 0 mm 1 mps 739 mmHg 62%
    20:00 +22°C° 0 mm 1 mps 738 mmHg 66%
    21:00 +19°C° 0 mm 2 mps 738 mmHg 71%
    22:00 +18°C° 0 mm 2 mps 738 mmHg 74%
    23:00 +18°C° 0 mm 3 mps 738 mmHg 77%

    23 July, Tuesday

    Time Temperature Precipitation Wind Pressure Humidity
    00:00 +17°C° 0 mm 3 mps 738 mmHg 81%
    01:00 +17°C° 0 mm 3 mps 738 mmHg 81%
    02:00 +17°C° 0 mm 3 mps 737 mmHg 82%
    03:00 +17°C° 0 mm 3 mps 737 mmHg 82%
    04:00 +17°C° 0 mm 3 mps 737 mmHg 81%
    05:00 +17°C° 0 mm 3 mps 737 mmHg 81%
    06:00 +17°C° 0 mm 3 mps 737 mmHg 80%
    07:00 +17°C° 0 mm 4 mps 737 mmHg 79%
    08:00 +18°C° 0 mm 4 mps 737 mmHg 78%
    09:00 +19°C° 0 mm 4 mps 737 mmHg 77%
    10:00 +19°C° 0.1 mm 4 mps 737 mmHg 76%
    11:00 +20°C° 0.1 mm 4 mps 737 mmHg 75%
    12:00 +21°C° 0.1 mm 4 mps 737 mmHg 74%
    13:00 +21°C° 0.1 mm 4 mps 737 mmHg 76%
    14:00 +20°C° 0.1 mm 4 mps 736 mmHg 78%
    15:00 +20°C° 0.1 mm 4 mps 736 mmHg 79%
    16:00 +20°C° 0.1 mm 4 mps 736 mmHg 79%
    17:00 +20°C° 0.1 mm 5 mps 736 mmHg 79%
    18:00 +20°C° 0.1 mm 5 mps 736 mmHg 79%
    19:00 +19°C° 0.3 mm 5 mps 736 mmHg 79%
    20:00 +19°C° 0.3 mm 5 mps 736 mmHg 79%
    21:00 +17°C° 0.3 mm 5 mps 736 mmHg 79%
    22:00 +17°C° 0.3 mm 5 mps 736 mmHg 81%
    23:00 +17°C° 0.3 mm 6 mps 736 mmHg 84%

    24 July, Wednesday

    Time Temperature Precipitation Wind Pressure Humidity
    00:00 +17°C° 0.3 mm 6 mps 736 mmHg 86%
    01:00 +16°C° 0.6 mm 6 mps 736 mmHg 87%
    02:00 +16°C° 0.6 mm 5 mps 736 mmHg 88%
    03:00 +15°C° 0.6 mm 5 mps 736 mmHg 90%
    04:00 +15°C° 0.7 mm 5 mps 736 mmHg 90%
    05:00 +15°C° 0.7 mm 5 mps 736 mmHg 91%
    06:00 +15°C° 0.7 mm 5 mps 736 mmHg 92%
    07:00 +15°C° 0.7 mm 5 mps 736 mmHg 92%
    08:00 +16°C° 0.7 mm 5 mps 736 mmHg 92%
    09:00 +16°C° 0.7 mm 5 mps 736 mmHg 92%
    10:00 +16°C° 1.6 mm 5 mps 736 mmHg 93%
    11:00 +15°C° 1.6 mm 5 mps 737 mmHg 95%
    12:00 +15°C° 1.6 mm 5 mps 737 mmHg 96%
    13:00 +15°C° 2.6 mm 5 mps 736 mmHg 96%
    14:00 +15°C° 2.6 mm 6 mps 736 mmHg 96%
    15:00 +15°C° 2.6 mm 6 mps 736 mmHg 97%
    16:00 +16°C° 1.5 mm 6 mps 736 mmHg 97%
    17:00 +16°C° 1.5 mm 6 mps 736 mmHg 96%
    18:00 +16°C° 1.5 mm 6 mps 736 mmHg 96%
    19:00 +16°C° 0.7 mm 6 mps 736 mmHg 96%
    20:00 +16°C° 0.7 mm 6 mps 736 mmHg 96%
    21:00 +16°C° 0.7 mm 6 mps 736 mmHg 96%
    22:00 +16°C° 0.5 mm 6 mps 736 mmHg 96%
    23:00 +17°C° 0.5 mm 6 mps 736 mmHg 96%
    Show more